Flag for Italy Weather past 2 weeks in Modena, Italy

Now
43 °F

Passing clouds.


Feels Like: 40 °F
Forecast: 38 / 55 °F
Wind: 5 mph from Southwest

Location: Bologna / Borgo Panigale

Current Time: Feb 27, 2015 at 2:38:50 AM

Latest Report: Feb 27, 2015 at 1:50 AM


Visibility: N/A

Pressure: 29.98 "Hg

Humidity: 81%

Dew point: 37 °F

Location of ModenaLocation

Historic Weather in Modena — Graph

°F

Modena temperature yesterday

Maximum temperature yesterday: 52 °F (at 2:50 PM)
Minimum temperature yesterday: 43 °F (at 12:20 AM)
Average temperature yesterday: 47 °F

Past Weeks' High & Low Weather Summary

 TemperatureHumidityPressure
High57 °F (Feb 21, 11:50 AM)100% (Feb 14, 7:20 PM)30.63 "Hg (Feb 14, 7:20 PM)
Low30 °F (Feb 12, 2:50 AM)35% (Feb 19, 4:20 PM)29.47 "Hg (Feb 22, 3:20 AM)
Average43 °F82%30.05 "Hg
* Reported Feb 12 1:20 AM — Feb 27 1:20 AM, Modena, Weather by CustomWeather, © 2015

Note: Actual official high and low records may vary slightly from our data, if they occured in-between our weather recording intervals... More about our weather records

Advertising

Modena weather history for previous 24 hours

 ConditionsComfort  
Time TempWeatherWind HumidityBarometerVisibility
1:20 AM
Fri, Feb 27
43 °FPassing clouds.3 mph87%29.98 "HgN/A
12:50 AM45 °FPassing clouds.2 mph81%29.98 "HgN/A
12:20 AM45 °FPassing clouds.5 mph81%29.98 "HgN/A
11:50 PM
Thu, Feb 26
45 °FPassing clouds.2 mph81%29.98 "HgN/A
11:20 PM45 °FPassing clouds.1 mph81%30.01 "HgN/A
9:50 PM45 °FPassing clouds.2 mph81%30.01 "HgN/A
9:20 PM46 °FPassing clouds.3 mph76%30.01 "HgN/A
8:50 PM46 °FPassing clouds.2 mph76%30.01 "HgN/A
8:20 PM46 °FPassing clouds.3 mph76%30.04 "HgN/A
7:50 PM46 °FPassing clouds.No wind76%30.04 "HgN/A
7:20 PM48 °FPassing clouds.3 mph66%30.04 "HgN/A
6:50 PM48 °FPartly cloudy.2 mph71%30.04 "HgN/A
6:20 PM48 °FPartly cloudy.2 mph66%30.04 "HgN/A
5:50 PM50 °FBroken clouds.2 mph62%30.04 "HgN/A
5:20 PM50 °FBroken clouds.3 mph62%30.04 "HgN/A
4:50 PM52 °FBroken clouds.3 mph58%30.04 "HgN/A
4:20 PM52 °FPartly sunny.2 mph58%30.04 "HgN/A
3:50 PM52 °FPartly sunny.No wind58%30.04 "HgN/A
3:20 PM52 °FPartly sunny.3 mph58%30.04 "HgN/A
2:50 PM52 °FPartly sunny.5 mph62%30.04 "HgN/A
2:20 PM50 °FPartly sunny.5 mph67%30.04 "HgN/A
1:50 PM50 °FPartly sunny.6 mph67%30.04 "HgN/A
1:20 PM50 °FPartly sunny.2 mph67%30.07 "HgN/A
12:50 PM50 °FPartly sunny.1 mph67%30.07 "HgN/A
12:20 PM50 °FPartly sunny.2 mph67%30.07 "HgN/A
10:50 AM48 °FPartly sunny.6 mph71%30.07 "HgN/A
10:20 AM48 °FPartly sunny.6 mph71%30.07 "HgN/A
9:50 AM46 °FPartly sunny.6 mph76%30.07 "HgN/A
9:20 AM45 °FPartly sunny.6 mph81%30.07 "HgN/A
8:50 AM45 °FPartly sunny.7 mph81%30.07 "HgN/A
8:20 AM45 °FPartly sunny.6 mph81%30.04 "HgN/A
7:50 AM45 °FPartly sunny.5 mph81%30.04 "HgN/A
6:50 AM45 °FPartly cloudy.7 mph76%30.04 "HgN/A
6:20 AM43 °FPassing clouds.5 mph81%30.01 "HgN/A
5:50 AM45 °FPartly cloudy.8 mph76%30.01 "HgN/A
4:50 AM43 °FPassing clouds.5 mph81%30.01 "HgN/A
4:20 AM43 °FPassing clouds.7 mph87%30.01 "HgN/A
3:50 AM43 °FPassing clouds.6 mph87%30.01 "HgN/A
3:20 AM43 °FPassing clouds.5 mph87%30.01 "HgN/A
2:50 AM43 °FPassing clouds.5 mph87%29.98 "HgN/A
2:20 AM43 °FPassing clouds.5 mph87%29.98 "HgN/A
Weather by CustomWeather, © 2015

See weather overviewHow to use our weather pages